[[{"header":{"parameterUnit":"m.s-1","parameterCategory":1,"la1":30.2991,"la2":30.254,"lo1":-89.0895,"lo2":-89.0444,"dy":0.0017,"dx":0.0017,"nx":28,"ny":28,"refTime":"2026-02-17T09:00:00:Z","depth":0,"parameterNumber":2,"parameterNumberName":"U-component_of_WINDS"},"data":[0,0,0,0,0,0,0,0,0,0,0,0,0,0,0,0,0,0,0,0,0,0,0,0,0,0,0,0,0,0,0,0,0,0,0,0,0,0,0,0,0,0,0,0,0,0,0,0,0,0,0,0,0,0,0,0,0,0,-1.2796,-1.2796,0,-1.2793,-1.2793,-1.2793,-1.2783,-1.2783,-1.2783,-1.2783,-1.278,-1.278,-1.278,0,0,0,0,0,0,0,0,0,0,0,0,0,-1.2793,-1.2793,-1.2796,-1.2796,-1.2796,-1.2793,-1.2793,-1.2793,-1.2783,-1.2783,-1.2783,-1.2783,-1.278,-1.278,-1.278,0,0,0,0,0,0,0,0,0,0,0,0,0,-1.2793,-1.2793,-1.2796,-1.2791,-1.279,-1.2793,-1.2793,-1.2793,-1.2784,-1.2783,-1.2783,-1.2783,-1.278,-1.278,-1.278,-1.2788,0,0,-1.2781,-1.2781,0,0,0,0,0,0,0,0,-1.2793,-1.2793,-1.2792,-1.2791,-1.2791,-1.2788,-1.2791,-1.2792,-1.2784,-1.2786,-1.2783,-1.2782,-1.2783,-1.2783,-1.2783,-1.2788,-1.2788,-1.2781,-1.2781,-1.2781,-1.2781,0,0,0,0,0,0,0,-1.2793,-1.2793,-1.2795,-1.2792,-1.2791,-1.2789,-1.2788,-1.2791,-1.2787,-1.2786,-1.2785,-1.2785,-1.2783,-1.2783,-1.2783,-1.2788,-1.2781,-1.2781,-1.2781,-1.2781,-1.2798,-1.2798,0,0,0,0,0,0,-1.2793,-1.2793,-1.2795,-1.2795,-1.2791,-1.2789,-1.2788,-1.2789,-1.2786,-1.2786,-1.2785,-1.2785,-1.2783,-1.2783,-1.2783,-1.2791,-1.2781,-1.2781,-1.2782,-1.2798,-1.2798,-1.2799,0,0,0,0,0,0,-1.2793,-1.2794,-1.2795,-1.2794,-1.2794,-1.2789,-1.279,-1.279,-1.279,-1.2786,-1.2785,-1.2786,-1.2783,-1.2783,-1.2787,-1.2791,-1.2782,-1.2782,-1.2797,-1.2798,-1.2798,-1.2809,0,0,0,0,0,0,-1.2793,-1.2794,-1.2797,-1.2794,-1.2794,-1.2799,-1.2791,-1.279,-1.279,-1.2789,-1.2787,-1.2786,-1.2782,-1.2787,-1.2787,-1.2791,-1.2782,-1.2797,-1.2798,-1.2798,-1.2808,-1.2809,-1.2811,0,0,0,0,0,-1.2793,-1.28,-1.2797,-1.2797,-1.2798,-1.2799,-1.2799,-1.2795,-1.2791,-1.2793,-1.2791,-1.2786,-1.2791,-1.2787,-1.2788,-1.2792,-1.2797,-1.2797,-1.2798,-1.2807,-1.2809,-1.2811,0,0,0,0,0,0,-1.2804,-1.28,-1.2796,-1.2802,-1.2801,-1.2798,-1.2801,-1.2797,-1.2798,-1.2797,-1.2791,-1.2791,-1.2795,-1.2794,-1.279,-1.2799,-1.2793,-1.2794,-1.28,-1.2801,-1.2803,-1.2803,-1.2782,0,0,0,0,0,-1.2807,-1.2809,-1.2805,-1.2811,-1.281,-1.2806,-1.2807,-1.2803,-1.2802,-1.2802,-1.2799,-1.2798,-1.2799,-1.28,-1.2801,-1.2808,-1.2806,-1.2811,-1.2812,-1.2813,-1.2814,-1.2816,-1.2818,-1.2801,-1.2801,-1.2801,0,0,-1.2814,-1.2811,-1.2813,-1.2813,-1.2812,-1.2814,-1.2806,-1.2808,-1.281,-1.2802,-1.2806,-1.2804,-1.2802,-1.2807,-1.2809,-1.2806,-1.2818,-1.2814,-1.2815,-1.2815,-1.2817,-1.2819,-1.282,-1.2801,-1.2801,-1.2801,0,0,-1.2826,-1.2825,-1.2829,-1.2828,-1.2826,-1.2823,-1.2824,-1.2821,-1.2819,-1.2823,-1.2817,-1.2818,-1.282,-1.2819,-1.2819,-1.283,-1.2826,-1.2831,-1.2838,-1.284,-1.2842,-1.2843,-1.2846,-1.2848,-1.2831,-1.2831,-1.2831,0,-1.2835,-1.2837,-1.2832,-1.2835,-1.2835,-1.2827,-1.2831,-1.283,-1.2829,-1.2829,-1.2826,-1.2827,-1.2826,-1.283,-1.2833,-1.2833,-1.2834,-1.2831,-1.2842,-1.2843,-1.2844,-1.2847,-1.2849,-1.2832,-1.2832,-1.2832,-1.2832,0,-1.2847,-1.2849,-1.2853,-1.2851,-1.2851,-1.2855,-1.285,-1.2851,-1.2847,-1.2844,-1.2847,-1.2845,-1.2845,-1.2846,-1.2842,-1.2849,-1.2847,-1.2843,-1.2837,-1.2846,-1.2849,-1.285,-1.2833,-1.2833,-1.2832,-1.2832,0,0,-1.2867,-1.2862,-1.2863,-1.2862,-1.2859,-1.286,-1.2863,-1.2863,-1.2863,-1.2862,-1.2864,-1.2866,-1.2861,-1.2861,-1.2857,-1.286,-1.2868,-1.2855,-1.2855,-1.2857,-1.2874,-1.2877,-1.2879,-1.2865,-1.2865,-1.2865,-1.2874,0,-1.2879,-1.2883,-1.2878,-1.2883,-1.2885,-1.2877,-1.288,-1.2878,-1.2875,-1.2876,-1.2873,-1.2873,-1.2868,-1.2868,-1.2869,-1.2866,-1.2871,-1.2866,-1.2866,-1.2866,-1.2866,-1.288,-1.2884,-1.2893,-1.2875,-1.2876,-1.2876,0,-1.2893,-1.2892,-1.2898,-1.2893,-1.2894,-1.2896,-1.2895,-1.2895,-1.2893,-1.2891,-1.289,-1.2885,-1.2887,-1.2881,-1.2883,-1.288,-1.288,-1.2878,-1.2878,-1.2878,-1.2871,-1.288,-1.2896,-1.2897,-1.2877,-1.2877,-1.2877,0,-1.2907,-1.2907,-1.291,-1.2909,-1.2904,-1.2906,-1.2904,-1.2901,-1.2901,-1.29,-1.2899,-1.2899,-1.2898,-1.2897,-1.2892,-1.2889,-1.2895,-1.2889,-1.2893,-1.2893,-1.2895,-1.2895,-1.291,-1.2895,-1.2895,-1.2895,-1.2895,0,-1.292,-1.2924,-1.2916,-1.2918,-1.2921,-1.2915,-1.2918,-1.2916,-1.2913,-1.2914,-1.2908,-1.2909,-1.2902,-1.2902,-1.2898,-1.29,-1.29,-1.2898,-1.2897,-1.2899,-1.2899,-1.2899,-1.2898,-1.2895,-1.2895,-1.2895,-1.2895,0,-1.2936,-1.2931,-1.2933,-1.2928,-1.2927,-1.293,-1.2925,-1.2927,-1.2923,-1.2924,-1.2924,-1.2919,-1.2918,-1.2913,-1.2912,-1.2909,-1.2913,-1.2911,-1.2914,-1.2913,-1.2917,-1.2917,-1.2932,-1.2934,-1.2918,-1.2918,-1.2919,0,-1.2945,-1.2947,-1.2942,-1.2942,-1.294,-1.2941,-1.294,-1.2934,-1.2934,-1.293,-1.2932,-1.2931,-1.293,-1.293,-1.2926,-1.2924,-1.2922,-1.2927,-1.2922,-1.2923,-1.2921,-1.2921,-1.2921,-1.2929,-1.2929,-1.2929,-1.2929,0,-1.2961,-1.2958,-1.2957,-1.2956,-1.2955,-1.2954,-1.2952,-1.2952,-1.2945,-1.2945,-1.2945,-1.2944,-1.2942,-1.2941,-1.2939,-1.2937,-1.2932,-1.2931,-1.2932,-1.2933,-1.2935,-1.2934,-1.2917,-1.2931,-1.2931,-1.293,-1.293,-1.293,-1.2973,-1.2975,-1.2971,-1.297,-1.2968,-1.2966,-1.2967,-1.2963,-1.2962,-1.296,-1.2957,-1.2957,-1.2953,-1.295,-1.2948,-1.2947,-1.2944,-1.2946,-1.2946,-1.2946,-1.2947,-1.2935,-1.2947,-1.2947,-1.2947,-1.2947,-1.2947,0,-1.2989,-1.2986,-1.2985,-1.2982,-1.2982,-1.2977,-1.2974,-1.2974,-1.2974,-1.2971,-1.297,-1.2968,-1.2967,-1.2962,-1.2961,-1.2961,-1.2959,-1.2961,-1.2961,-1.296,-1.295,-1.2949,-1.2963,-1.2963,-1.2963,-1.2963,-1.2963,-1.2963,-1.2997,-1.2999,-1.2995,-1.2996,-1.2992,-1.2992,-1.2991,-1.2989,-1.2986,-1.2985,-1.2984,-1.2981,-1.2977,-1.2975,-1.2973,-1.2972,-1.2971,-1.2974,-1.2972,-1.2962,-1.2961,-1.2959,-1.2959,-1.2974,-1.2974,-1.2982,-1.2982,-1.2982]},{"header":{"parameterUnit":"m.s-1","parameterCategory":1,"la1":30.2991,"la2":30.254,"lo1":-89.0895,"lo2":-89.0444,"dy":0.0017,"dx":0.0017,"nx":28,"ny":28,"refTime":"2026-02-17T09:00:00:Z","depth":0,"parameterNumber":3,"parameterNumberName":"V-component_of_WINDS"},"data":[0,0,0,0,0,0,0,0,0,0,0,0,0,0,0,0,0,0,0,0,0,0,0,0,0,0,0,0,0,0,0,0,0,0,0,0,0,0,0,0,0,0,0,0,0,0,0,0,0,0,0,0,0,0,0,0,0,0,4.1859,4.186,0,4.1935,4.1935,4.1936,4.1929,4.1928,4.1927,4.1926,4.2009,4.2012,4.2016,0,0,0,0,0,0,0,0,0,0,0,0,0,4.1717,4.172,4.1859,4.186,4.1861,4.1934,4.1935,4.1936,4.193,4.1928,4.1927,4.1925,4.2008,4.2012,4.2016,0,0,0,0,0,0,0,0,0,0,0,0,0,4.1784,4.1721,4.1859,4.1866,4.1868,4.1934,4.1935,4.1937,4.193,4.1928,4.1926,4.1925,4.2007,4.2011,4.2016,4.2082,0,0,4.2031,4.2034,0,0,0,0,0,0,0,0,4.1781,4.179,4.1864,4.1866,4.1868,4.1921,4.1916,4.1986,4.193,4.1907,4.1926,4.1924,4.1981,4.1988,4.2007,4.2086,4.209,4.2032,4.2035,4.2037,4.2038,0,0,0,0,0,0,0,4.1776,4.1786,4.1889,4.1866,4.1868,4.1868,4.1876,4.1929,4.1953,4.1908,4.1908,4.1917,4.1982,4.2002,4.2008,4.2091,4.2032,4.2036,4.2039,4.2041,4.2233,4.2235,0,0,0,0,0,0,4.1769,4.1782,4.1887,4.1891,4.1819,4.1872,4.1881,4.1906,4.1952,4.1958,4.1918,4.1916,4.1994,4.2003,4.2011,4.2094,4.2037,4.2042,4.2045,4.2231,4.2233,4.2235,0,0,0,0,0,0,4.1766,4.1778,4.1884,4.1837,4.185,4.1877,4.1904,4.1908,4.1928,4.196,4.1965,4.1933,4.1993,4.2004,4.2065,4.2097,4.2044,4.2048,4.2228,4.2231,4.2234,4.2259,0,0,0,0,0,0,4.1761,4.1777,4.18,4.1837,4.1853,4.1934,4.1906,4.1911,4.1935,4.1933,4.1975,4.1981,4.1993,4.2058,4.207,4.2103,4.2052,4.2225,4.223,4.2233,4.2255,4.2262,4.2268,0,0,0,0,0,4.1756,4.1804,4.1801,4.1814,4.1882,4.1936,4.1945,4.1956,4.1938,4.1963,4.1984,4.1979,4.2091,4.2064,4.2078,4.2113,4.2223,4.2228,4.2233,4.2252,4.2261,4.2268,0,0,0,0,0,0,4.1771,4.1809,4.1806,4.1867,4.1898,4.1934,4.1966,4.1964,4.2002,4.1999,4.2013,4.2022,4.2084,4.2104,4.2073,4.2181,4.2155,4.2163,4.2165,4.2174,4.218,4.2175,4.2056,0,0,0,0,0,4.1782,4.182,4.1852,4.1903,4.1918,4.194,4.1963,4.1969,4.2002,4.2016,4.2041,4.2076,4.2119,4.2147,4.2189,4.2258,4.2269,4.2289,4.2296,4.2301,4.2308,4.235,4.236,4.2251,4.2251,4.2251,0,0,4.1804,4.1829,4.1852,4.1906,4.1931,4.1973,4.1951,4.1995,4.2027,4.2023,4.2082,4.2103,4.2143,4.2209,4.2239,4.2227,4.2341,4.2307,4.2311,4.2315,4.2356,4.2366,4.2375,4.2254,4.2254,4.2253,0,0,4.1865,4.1887,4.1933,4.1958,4.1996,4.201,4.2021,4.2058,4.2071,4.213,4.2129,4.2169,4.2242,4.2272,4.2296,4.2372,4.2371,4.2385,4.2421,4.2461,4.247,4.2478,4.2508,4.2518,4.2392,4.2392,4.2392,0,4.1888,4.1949,4.1958,4.2003,4.2029,4.2026,4.2075,4.21,4.2149,4.2168,4.2154,4.2248,4.2274,4.2349,4.2367,4.2386,4.2402,4.2381,4.2467,4.2475,4.2483,4.2512,4.2523,4.2394,4.2394,4.2393,4.2393,0,4.1977,4.202,4.2053,4.21,4.2129,4.2176,4.2195,4.2224,4.2228,4.2245,4.2308,4.2339,4.2388,4.2406,4.2411,4.2483,4.2475,4.2464,4.2439,4.2495,4.2523,4.2533,4.2396,4.2396,4.2395,4.2395,0,0,4.205,4.2102,4.2115,4.2138,4.218,4.2214,4.2263,4.2309,4.2335,4.237,4.2414,4.2477,4.2468,4.2496,4.2504,4.2539,4.2602,4.2525,4.2526,4.254,4.2687,4.2697,4.2709,4.26,4.2602,4.2604,4.2685,0,4.2118,4.2202,4.2212,4.2288,4.2329,4.2329,4.2372,4.2404,4.2422,4.2462,4.2482,4.2528,4.251,4.2528,4.2562,4.2586,4.2632,4.2581,4.2644,4.2646,4.2636,4.2723,4.2733,4.2808,4.2696,4.2697,4.2699,0,4.2208,4.2245,4.2324,4.2364,4.2381,4.2419,4.2465,4.2502,4.254,4.2551,4.2583,4.2587,4.2641,4.2613,4.269,4.2655,4.2682,4.2698,4.2701,4.2709,4.2677,4.2736,4.2832,4.2844,4.2715,4.2714,4.2713,0,4.2257,4.2326,4.2384,4.2403,4.2449,4.2477,4.2498,4.2533,4.2562,4.2603,4.2622,4.2669,4.2695,4.2733,4.2751,4.2728,4.2828,4.28,4.2842,4.2841,4.2864,4.2863,4.2967,4.2877,4.2877,4.2877,4.2877,0,4.2333,4.2382,4.2407,4.2442,4.2499,4.2512,4.2568,4.2589,4.2621,4.2663,4.2666,4.2706,4.2726,4.277,4.2785,4.2849,4.286,4.2873,4.2877,4.2874,4.2873,4.2893,4.2889,4.288,4.2879,4.2879,4.2878,0,4.2397,4.2415,4.2478,4.2517,4.2528,4.2568,4.2603,4.2639,4.2657,4.271,4.2724,4.2753,4.2805,4.2827,4.2891,4.2901,4.2975,4.2974,4.2962,4.2964,4.3005,4.3002,4.3128,4.3147,4.3042,4.3043,4.3044,0,4.2445,4.2483,4.2526,4.2554,4.2576,4.262,4.2649,4.2664,4.2695,4.2743,4.2774,4.2826,4.2868,4.2953,4.2981,4.3032,4.3033,4.3074,4.3041,4.3038,4.3038,4.3036,4.3042,4.3081,4.3082,4.3083,4.3084,0,4.253,4.2538,4.2578,4.2623,4.2658,4.2694,4.273,4.2753,4.2775,4.281,4.2862,4.2895,4.2961,4.3014,4.3066,4.3091,4.3093,4.3094,4.3106,4.3105,4.3098,4.3105,4.2981,4.3091,4.309,4.309,4.3089,4.3089,4.259,4.2625,4.2661,4.2708,4.2736,4.277,4.2807,4.2829,4.2873,4.2927,4.2934,4.2991,4.3032,4.3102,4.3129,4.3177,4.3167,4.3185,4.319,4.3194,4.3199,4.3088,4.3186,4.3186,4.3186,4.3186,4.3186,0,4.2678,4.2701,4.2743,4.2793,4.2831,4.2826,4.2867,4.2899,4.2949,4.2986,4.3027,4.309,4.3142,4.3175,4.3229,4.3261,4.3263,4.3274,4.3274,4.328,4.3203,4.3188,4.3272,4.3272,4.3272,4.3272,4.3272,4.3272,4.2728,4.2788,4.28,4.2875,4.2899,4.2954,4.2978,4.3011,4.3041,4.311,4.3152,4.3173,4.321,4.3266,4.3315,4.3324,4.3345,4.3358,4.3366,4.3294,4.3285,4.3277,4.3263,4.3361,4.3361,4.344,4.3441,4.3441]}]]